This is the latest recevied weather packets stored in our database for station/object OK1JIL-13. If no packets are shown the sender has not sent any weather packets the latest 10 day(s).
| Time | Temp. | Humidity | Pressure | Rain* | Wind** | Luminosity | Snow |
|---|---|---|---|---|---|---|---|
| 1777482192 | 2.78° C | 35% | 1026.6 hPa | - | - | - | - |
| 1777481592 | 2.78° C | 34% | 1026.3 hPa | - | - | - | - |
| 1777480992 | 3.33° C | 34% | 1026.5 hPa | - | - | - | - |
| 1777480392 | 3.33° C | 35% | 1026.4 hPa | - | - | - | - |
| 1777479792 | 2.78° C | 35% | 1026.4 hPa | - | - | - | - |
| 1777479192 | 2.78° C | 35% | 1026.3 hPa | - | - | - | - |
| 1777477992 | 3.33° C | 33% | 1026.2 hPa | - | - | - | - |
| 1777477392 | 4.44° C | 34% | 1026.1 hPa | - | - | - | - |
| 1777476792 | 3.33° C | 34% | 1026 hPa | - | - | - | - |
| 1777476192 | 4.44° C | 31% | 1026 hPa | - | - | - | - |
| 1777475592 | 4.44° C | 30% | 1026.1 hPa | - | - | - | - |
| 1777474992 | 3.89° C | 31% | 1026 hPa | - | - | - | - |
| 1777474392 | 4.44° C | 30% | 1026.1 hPa | - | - | - | - |
| 1777473792 | 5° C | 29% | 1026.1 hPa | - | - | - | - |
| 1777473192 | 5° C | 29% | 1026.1 hPa | - | - | - | - |
| 1777472592 | 5° C | 27% | 1025.9 hPa | - | - | - | - |
| 1777471992 | 5.56° C | 27% | 1026.1 hPa | - | - | - | - |
| 1777471392 | 5.56° C | 29% | 1026.1 hPa | - | - | - | - |
| 1777470192 | 5° C | 29% | 1025.9 hPa | - | - | - | - |
| 1777469592 | 5° C | 28% | 1026 hPa | - | - | - | - |
| 1777468992 | 5.56° C | 30% | 1025.9 hPa | - | - | - | - |
| 1777468392 | 5.56° C | 31% | 1025.7 hPa | - | - | - | - |
| 1777467792 | 6.67° C | 30% | 1025.7 hPa | - | - | - | - |
| 1777467192 | 5.56° C | 30% | 1025.7 hPa | - | - | - | - |
| 1777466592 | 5.56° C | 30% | 1025.8 hPa | - | - | - | - |
* Rain since midnight (hover to see other rain measurements)
** Current wind speed in m/s (hover to see current wind gust speed)